CZ-3C DEB, 39354

Orbit data source: Space-Track

CZ-3C DEB, 39354 is space debris in HEO originally from a launch on Sun, 31 Oct 2010 UTC launched from the Xichang Space Center, China (XSC). Debris objects in space refer to the collection of defunct objects orbiting the Earth. Examples of debris include non-operational satellites, rocket bodies, and fragments generated from explosions, collisions, or faulty payload assembly.

Loading next visibility...
Identifier
39354, 2010-057U
Orbit
HEO
Country
Flag of CNCN / PRC
Related business
Manufacturer
CALT
Mission
Spacecraft
Bus & Motor
Unknown
Mass
Unknown
Launch date (UTC)
2010-10-31 (15 years ago)
Launch vehicle
Unknown
Launch site
Xichang Space Center, China (XSC)
Object type
Payload
Rocket body
Debris
Shape & HBR
Unknown shape, 0.2 m
Radar Cross Section
Medium (>0.1 m² and <1 m²)

Expand to show TLE details & history
Last TLE update: 3 days ago

TLE from 3 days ago
0 CZ-3C DEB
1 39354U 10057U   26103.32242580  .00000006  00000-0  54304-3 0  9990
2 39354  20.1912 114.2599 7192432 126.0190 358.9764  2.22632328 97355
Epoch: 2026-04-13T07:44Z
TLE epoch observation values (Epoch: 2026-04-13T07:44:17.589Z)
Latitude
17.82504°
Longitude
-83.74894°
Altitude
597.794 km
Speed
9.91 km/s
True Right ascension
15h 35m 21s
True Declination
17° 43' 22"
Sunlit
Object was in full shadow at epoch
Visualization orbit readout
Latitude
Unknown
Longitude
Unknown
Altitude
Unknown
Speed
Unknown
Apparent Right ascension
Unknown
Apparent Declination
Unknown
Sunlit
N/A
Visualization observer readout
Local Sidereal Time
02:29:54
Azimuth
Unknown
Elevation
Unknown
Doppler factor
Unknown
Orbital elements
Apogee altitude
36,223.236 km
Perigee altitude
578.776 km
Semi-major axis
24,779.143 km
Eccentricity
0.71924
Inclination
20.1912°
RAAN
114.2599°
Arg. of periapsis
126.019°
True anomaly
351.00897°
Mean anomaly
358.9764°
Eccentric anomaly
356.36041°
Mean motion
0.55643 °/min
Orbital period
646.98 mins
BSTAR
0.00054304
Loading maneuver chart data...
Computing Atmospheric mass density...
Loading historical data...
Loading historical data...
Loading historical data...
Loading historical data...
Loading historical data...
Loading historical data...
Loading historical data...

Documentation

Showing up to 5 results
|